Location: Baix
(44.7118°N, 4.7648°E)
Time: 23:40:20
(UTC+00:00)

Transit 2A Rocket - Visible Passes

Search period start: 05 December 2020 00:00
Search period end: 15 December 2020 00:00
Orbit: 589 x 914 km, 66.7° (Epoch: 05 December)

Date Brightness Start Highest point End Pass type
(mag) Time Alt. Az. Time Alt. Az. Time Alt. Az.
07 Dec 7.0 06:31:42 10° N 06:34:35 15° NE 06:37:19 10° ENE visible
08 Dec 7.3 05:50:12 10° NNE 05:51:26 11° NNE 05:52:38 10° NE visible
10 Dec 6.8 06:06:09 10° N 06:09:38 19° NE 06:12:54 10° E visible
11 Dec 7.2 05:24:12 10° N 05:26:33 13° NNE 05:28:49 10° ENE visible
12 Dec 5.9 06:22:59 10° NNW 06:27:28 38° NE 06:31:38 10° ESE visible
13 Dec 6.5 05:40:40 10° NNW 05:44:36 24° NE 05:48:17 10° E visible
14 Dec 7.0 04:58:41 10° N 05:01:37 17° NE 05:04:33 10° ENE visible
